Weather in Yelanka

Russia / Novosibirsk Oblast     55°37′29″N   75°17′41″E
temp.,
°C
wind,
m/s
gust,
m/s
humid.,
%
clouds,
%
prec.,
mm/h
press.,
hPa
HPBL,
m
7 march, sun
sun701:00−13wsw5119139 0.0 1011210
04:00−15wsw47950 0.0 1012114
07:00−16sw47940 0.0 1015116
10:00−15sw5119127 0.0 1015217
13:00−11sw598944 0.0 1017323
16:00−9sw468938 0.0 1017339
19:00−9sse369253 0.0 1016185
22:00−8se51291100 0.0 1012355
8 march, mon
mon801:00−1s91696100 1.6 1007814
04:000ssw101797100 1.1 1003890
07:000ssw101895100 2.1 1001710
10:00−1ssw91596100 1.8 999782
13:00−2w81196100 4.2 1001730
16:00−7wnw71188100 0.6 1005746
19:00−9w61289100 0.6 1009524
22:00−12w5139294 0.0 1013380
9 march, tue
tue901:00−13wsw5119297 0.0 1016322
04:00−16ssw4119268 0.0 1016206
07:00−15ssw6139080 0.0 1016366
10:00−14sw6139189 0.0 1017413
13:00−10ssw7119194 0.0 1017526
16:00−8sw71191100 0.0 1017532
19:00−9ssw51193100 0.1 1016446
22:00−10ssw51095100 0.0 1016274
10 march, wed
wed1001:00−11ssw51093100 0.1 1014227
04:00−11ssw51092100 0.0 1013268
07:00−11ssw51090100 0.0 1011271
10:00−10s5888100 0.0 1009254
13:00−8s5888100 0.0 1008295
16:00−7sse3589100 0.0 1004287
19:00−8e2395100 0.8 1000261
22:00−8n2496100 0.9 998111
11 march, thu
thu1101:00−10w479699 1.2 998194
04:00−9sw499594 0.2 1000256
07:00−8ssw5119595 0.4 1001352
10:00−10sw91489100 0.6 1002671
13:00−9sw81388100 0.7 10041020
16:00−10w91287100 0.3 1009836
19:00−12wsw51091100 0.3 1012623
22:00−14sw4895100 0.1 1014255